Location: Newark
(42.8200°N, 13.1900°E)
Time: 12:07:32
(UTC+00:00)

STARLINK-1280 - Pass Details

Date: 07 April 2020
Orbit: 569 x 570 km, 53.0° (Epoch: 06 June)

Event Time Altitude Azimuth Distance (km) Brightness Sun altitude
Exits shadow 01:54:19 19° 340° (NNW) 1,378 5.8 -27.7°
Drops below altitude 10° 01:58:28 10° 47° (NE) 1,878 7.3 -27.2°
Enters shadow 02:59:05 -65° 273° (W) 12,170 10.4 -18.0°
Maximum altitude 03:36:17 29° 19° (NNE) 1,051 5.5 -11.8°
